Total_Precipitation_Accumulation
0.10 0.05 0.06 0.05 0.09 0.10 0.11 0.14 0.16 0.17 0.15 0.14 0.13 0.13 0.14 0.13 0.10 0.09 0.09 0.12 0.16 0.22 0.26 0.28 0.27 0.25 0.25 0.24 0.20 0.15 0.13 0.13 0.16 0.17 0.23 0.28 0.33 0.35 0.37 0.37 0.43 0.38 0.24
0.07 0.05 0.07 0.05 0.06 0.08 0.10 0.14 0.16 0.15 0.16 0.17 0.17 0.17 0.16 0.12 0.09 0.09 0.09 0.13 0.19 0.24 0.24 0.25 0.23 0.21 0.21 0.18 0.14 0.12 0.12 0.14 0.23 0.32 0.38 0.41 0.46 0.44 0.40 0.36 0.45 0.47 0.28
0.08 0.06 0.05 0.05 0.05 0.07 0.09 0.13 0.14 0.13 0.14 0.16 0.17 0.16 0.13 0.10 0.08 0.09 0.09 0.13 0.19 0.21 0.19 0.15 0.13 0.14 0.14 0.12 0.10 0.11 0.12 0.19 0.33 0.54 0.86 0.76 0.57 0.44 0.42 0.34 0.28 0.23 0.24
0.08 0.06 0.04 0.06 0.06 0.07 0.07 0.11 0.16 0.15 0.14 0.14 0.15 0.14 0.12 0.11 0.11 0.11 0.11 0.14 0.17 0.16 0.13 0.10 0.09 0.09 0.11 0.09 0.09 0.11 0.15 0.24 0.46 0.78 1.38 1.15 0.77 0.54 0.49 0.38 0.26 0.20 0.22
0.08 0.05 0.07 0.08 0.09 0.10 0.09 0.08 0.14 0.17 0.17 0.17 0.17 0.16 0.16 0.15 0.14 0.13 0.14 0.15 0.15 0.15 0.16 0.16 0.13 0.10 0.10 0.10 0.11 0.15 0.24 0.39 0.66 1.08 1.65 1.49 1.20 0.85 0.56 0.43 0.37 0.29 0.27
0.12 0.08 0.09 0.10 0.11 0.14 0.14 0.13 0.15 0.16 0.19 0.21 0.20 0.20 0.19 0.18 0.17 0.15 0.15 0.15 0.16 0.17 0.19 0.22 0.18 0.11 0.09 0.10 0.13 0.20 0.31 0.52 0.75 1.16 1.73 1.62 1.29 0.94 0.58 0.49 0.44 0.36 0.30
0.22 0.19 0.15 0.15 0.14 0.15 0.17 0.21 0.24 0.20 0.20 0.23 0.23 0.21 0.21 0.21 0.19 0.18 0.18 0.17 0.18 0.22 0.23 0.19 0.14 0.09 0.08 0.10 0.15 0.22 0.36 0.64 0.90 1.45 1.77 1.60 1.51 1.01 0.68 0.60 0.53 0.42 0.32
0.32 0.28 0.28 0.23 0.16 0.17 0.20 0.23 0.29 0.31 0.30 0.29 0.27 0.25 0.24 0.22 0.21 0.23 0.23 0.23 0.25 0.29 0.27 0.17 0.10 0.08 0.08 0.09 0.13 0.21 0.38 0.56 0.76 1.37 1.73 1.49 1.26 0.95 0.80 0.71 0.56 0.45 0.37
0.41 0.45 0.43 0.31 0.26 0.27 0.29 0.27 0.29 0.36 0.37 0.37 0.37 0.37 0.33 0.31 0.29 0.28 0.27 0.27 0.30 0.31 0.25 0.17 0.12 0.09 0.09 0.09 0.11 0.17 0.31 0.55 0.79 1.09 1.20 1.36 1.14 1.00 0.86 0.67 0.48 0.37 0.32
0.62 0.63 0.62 0.62 0.55 0.41 0.38 0.38 0.37 0.43 0.46 0.40 0.38 0.40 0.39 0.34 0.31 0.30 0.26 0.29 0.29 0.28 0.25 0.22 0.20 0.16 0.12 0.10 0.11 0.16 0.26 0.38 0.48 0.87 1.33 1.25 1.04 1.13 1.12 0.84 0.59 0.44 0.34
0.82 0.80 0.74 0.80 0.77 0.60 0.51 0.43 0.46 0.52 0.57 0.53 0.45 0.44 0.41 0.47 0.51 0.46 0.37 0.39 0.37 0.35 0.33 0.31 0.26 0.22 0.18 0.14 0.15 0.19 0.21 0.26 0.52 1.02 1.47 1.17 1.10 1.24 1.26 1.08 0.79 0.61 0.47
1.02 1.01 0.96 0.82 0.74 0.69 0.57 0.57 0.65 0.62 0.63 0.60 0.64 0.61 0.63 0.91 1.01 0.80 0.82 0.71 0.65 0.57 0.49 0.43 0.36 0.30 0.23 0.19 0.22 0.24 0.21 0.28 0.62 1.15 1.12 0.97 1.13 1.35 1.48 1.29 1.01 0.79 0.67
1.41 1.20 1.25 1.13 0.95 1.08 1.12 0.96 0.94 0.91 0.91 0.86 1.02 1.04 1.10 1.23 1.20 1.15 1.24 1.05 0.94 0.84 0.79 0.79 0.56 0.44 0.41 0.44 0.42 0.38 0.38 0.44 0.65 0.91 1.02 1.04 1.20 1.46 1.67 1.50 1.21 1.06 0.99
1.87 1.64 1.54 1.54 1.43 1.50 1.74 1.59 1.35 1.22 1.23 1.23 1.31 1.24 1.44 1.58 1.54 1.49 1.55 1.42 1.38 1.34 1.36 1.22 1.03 0.86 0.79 0.69 0.62 0.60 0.59 0.60 0.71 0.95 1.06 1.06 1.20 1.51 1.77 1.73 1.50 1.31 1.24
2.07 1.99 1.76 1.82 1.85 1.94 2.12 1.96 1.77 1.83 1.63 1.54 1.66 1.56 1.62 1.71 1.73 1.81 1.74 1.74 1.64 1.61 1.59 1.43 1.34 1.30 1.21 1.10 0.90 0.84 0.85 0.77 0.84 1.02 1.05 1.07 1.13 1.41 1.79 1.97 1.86 1.64 1.59
2.01 2.10 2.17 2.14 2.15 2.02 2.07 2.05 1.89 1.85 1.93 1.75 1.70 1.69 1.65 1.72 1.93 1.99 1.98 1.98 1.95 1.94 2.02 1.81 1.62 1.71 1.56 1.49 1.32 1.24 1.17 1.16 1.18 1.28 1.42 1.34 1.16 1.25 1.58 1.93 2.06 2.03 1.99
1.99 2.05 2.18 2.19 2.23 2.16 2.11 2.13 2.07 1.97 1.94 2.00 2.03 2.05 1.89 1.82 2.05 2.13 2.30 2.26 2.20 2.18 2.24 2.20 2.06 2.07 1.88 1.75 1.63 1.51 1.46 1.54 1.53 1.47 1.60 1.72 1.48 1.41 1.45 1.62 1.83 1.98 2.07
1.65 1.82 1.94 2.03 2.11 2.33 2.44 2.52 2.38 2.48 2.47 2.40 2.25 2.23 2.10 2.05 2.20 2.41 2.53 2.52 2.50 2.42 2.52 2.63 2.57 2.37 2.24 2.06 1.90 1.66 1.58 1.69 1.72 1.71 1.74 1.87 1.98 1.83 1.73 1.60 1.66 1.80 1.99
1.44 1.75 1.92 2.07 2.25 2.41 2.62 2.82 2.80 2.92 2.88 2.83 2.75 2.62 2.66 2.71 2.63 2.75 2.89 2.97 2.96 2.99 2.97 2.83 2.93 2.74 2.66 2.49 2.16 1.95 1.73 1.69 1.75 1.70 1.77 1.77 1.88 1.93 1.93 1.84 1.71 1.73 1.92
1.44 1.75 2.01 2.20 2.47 2.78 2.88 3.08 3.03 3.20 3.33 3.42 3.53 3.38 3.22 3.29 3.29 3.40 3.37 3.39 3.40 3.46 3.32 3.28 3.27 3.03 2.83 2.79 2.39 2.19 2.00 1.84 1.81 1.77 1.74 1.77 1.72 1.63 1.70 1.79 1.88 1.73 1.83
1.92 2.00 2.11 2.27 2.49 2.70 3.01 3.36 3.55 3.66 3.88 4.02 4.10 4.21 4.16 4.13 4.26 4.31 4.18 4.07 3.93 3.82 3.64 3.52 3.33 3.15 2.91 2.83 2.70 2.36 1.93 1.66 1.63 1.55 1.58 1.69 1.69 1.61 1.63 1.70 1.77 1.72 1.63
2.20 2.21 2.29 2.40 2.67 2.97 3.37 3.85 4.27 4.44 4.57 4.59 4.62 4.82 4.93 4.97 5.14 5.24 5.15 4.93 4.68 4.35 3.91 3.59 3.40 3.24 2.97 2.94 2.90 2.81 2.26 1.86 1.55 1.27 1.32 1.38 1.43 1.53 1.51 1.50 1.58 1.68 1.63
2.19 2.27 2.39 2.70 3.11 3.56 4.05 4.58 5.02 5.28 5.30 5.23 4.97 5.09 5.24 5.21 5.31 5.49 5.47 5.20 4.80 4.24 3.74 3.56 3.48 3.35 3.16 3.06 2.91 2.97 2.56 2.16 1.82 1.40 1.19 1.12 1.19 1.23 1.23 1.28 1.35 1.46 1.46
2.16 2.34 2.48 2.81 3.34 3.83 4.28 4.95 5.49 5.76 5.95 6.06 5.84 5.54 5.39 5.23 5.12 5.01 4.85 4.44 3.97 3.63 3.37 3.28 3.27 3.09 3.08 3.00 2.90 2.61 2.38 2.13 1.94 1.62 1.31 1.13 1.13 1.13 1.13 1.13 1.20 1.38 1.44
2.10 2.13 2.22 2.66 3.24 3.97 4.68 5.23 5.72 6.11 6.27 6.22 5.86 5.50 5.09 4.75 4.32 3.96 3.59 3.29 3.15 2.95 2.75 2.66 2.64 2.59 2.47 2.42 2.44 2.38 2.31 2.10 1.82 1.63 1.45 1.28 1.26 1.16 1.13 1.17 1.23 1.31 1.40
1.76 1.90 2.12 2.49 3.18 3.92 4.52 5.07 5.48 5.83 5.88 5.60 5.16 4.70 4.39 4.01 3.56 3.12 2.86 2.60 2.44 2.26 2.06 1.95 1.95 1.99 2.05 2.11 2.16 2.14 2.11 2.09 1.97 1.88 1.75 1.56 1.43 1.38 1.28 1.22 1.26 1.31 1.44